Flag for Israel Weather past 2 weeks in Petah Tikva, Israel

Now
90 °F

Passing clouds.


Feels Like: 98 °F
Forecast: 79 / 88 °F
Wind: 14 mph from Northwest

Location: Ben Gurion International Airport

Current Time: Sep 3, 2015 at 3:02:00 PM

Latest Report: Sep 3, 2015 at 2:20 PM


Visibility: N/A

Pressure: 29.83 "Hg

Humidity: 59%

Dew point: 73 °F

Location of Petah TikvaLocation

Historic Weather in Petah Tikva — Graph

°F

Petah Tikva temperature yesterday

Maximum temperature yesterday: 91 °F (at 11:50 AM)
Minimum temperature yesterday: 77 °F (at 3:20 AM)
Average temperature yesterday: 84 °F

Past Weeks' High & Low Weather Summary

 TemperatureHumidityPressure
High91 °F (Aug 19, 1:50 PM)83% (Aug 28, 4:20 AM)29.89 "Hg (Aug 28, 4:20 AM)
Low75 °F (Aug 26, 4:20 AM)46% (Aug 19, 2:50 PM)29.71 "Hg (Aug 23, 3:20 PM)
Average83 °F65%29.82 "Hg
* Reported Aug 19 1:20 PM — Sep 3 1:50 PM, Petah Tikva, Weather by CustomWeather, © 2015

Note: Actual official high and low records may vary slightly from our data, if they occured in-between our weather recording intervals... More about our weather records

Advertising

Petah Tikva weather history for previous 24 hours

 ConditionsComfort  
Time TempWeatherWind HumidityBarometerVisibility
1:50 PM
Thu, Sep 3
91 °FPassing clouds.10 mph52%29.83 "HgN/A
1:20 PM91 °FPassing clouds.9 mph52%29.83 "HgN/A
12:50 PM90 °FPassing clouds.9 mph55%29.83 "HgN/A
12:20 PM90 °FPassing clouds.10 mph55%29.83 "HgN/A
11:50 AM90 °FPassing clouds.9 mph59%29.83 "HgN/A
11:20 AM90 °FScattered clouds.8 mph59%29.86 "HgN/A
10:50 AM88 °FScattered clouds.6 mph59%29.86 "HgN/A
10:20 AM88 °FScattered clouds.2 mph62%29.86 "HgN/A
9:50 AM86 °FScattered clouds.3 mph62%29.86 "HgN/A
9:20 AM84 °FScattered clouds.3 mph70%29.86 "HgN/A
8:50 AM81 °FPassing clouds.3 mph74%29.86 "HgN/A
8:20 AM81 °FPassing clouds.6 mph74%29.86 "HgN/A
7:50 AM79 °FPassing clouds.6 mph79%29.86 "HgN/A
7:20 AM79 °FPassing clouds.5 mph79%29.86 "HgN/A
6:50 AM77 °FPassing clouds.1 mph79%29.86 "HgN/A
6:20 AM77 °FPassing clouds.3 mph83%29.86 "HgN/A
5:50 AM79 °FPassing clouds.5 mph79%29.86 "HgN/A
5:20 AM79 °FPassing clouds.5 mph79%29.86 "HgN/A
4:50 AM79 °FPassing clouds.6 mph79%29.83 "HgN/A
4:20 AM79 °FPassing clouds.7 mph79%29.83 "HgN/A
3:50 AM79 °FPassing clouds.6 mph79%29.83 "HgN/A
3:20 AM79 °FPassing clouds.5 mph79%29.83 "HgN/A
2:50 AM79 °FPassing clouds.3 mph79%29.86 "HgN/A
2:20 AM79 °FPassing clouds.5 mph79%29.86 "HgN/A
1:50 AM79 °FPassing clouds.5 mph79%29.86 "HgN/A
1:20 AM81 °FPassing clouds.3 mph74%29.86 "HgN/A
12:50 AM81 °FPassing clouds.5 mph74%29.86 "HgN/A
12:20 AM81 °FPassing clouds.5 mph79%29.86 "HgN/A
11:50 PM
Wed, Sep 2
82 °FPassing clouds.6 mph74%29.86 "HgN/A
11:20 PM82 °FPassing clouds.5 mph74%29.86 "HgN/A
10:50 PM82 °FPassing clouds.5 mph74%29.86 "HgN/A
10:20 PM82 °FPassing clouds.2 mph74%29.86 "HgN/A
9:50 PM82 °FPassing clouds.2 mph74%29.86 "HgN/A
9:20 PM82 °FPassing clouds.6 mph74%29.86 "HgN/A
8:50 PM82 °FPassing clouds.7 mph74%29.86 "HgN/A
8:20 PM84 °FPassing clouds.6 mph70%29.86 "HgN/A
7:50 PM84 °FScattered clouds.8 mph66%29.86 "HgN/A
7:20 PM84 °FSunny.9 mph70%29.83 "Hg10 mi
6:20 PM86 °FSunny.10 mph62%29.83 "Hg10 mi
5:50 PM88 °FSunny.10 mph62%29.83 "Hg10 mi
5:20 PM88 °FSunny.12 mph59%29.83 "Hg10 mi
4:50 PM88 °FSunny.13 mph62%29.83 "Hg10 mi
4:20 PM90 °FSunny.13 mph52%29.83 "Hg10 mi
3:50 PM90 °FSunny.13 mph52%29.83 "Hg10 mi
3:20 PM90 °FSunny.14 mph46%29.83 "Hg10 mi
Weather by CustomWeather, © 2015

See weather overviewHow to use our weather pages